一网星座-0409星 (ONEWEB-0409 )

导读

ONEWEB-0409是英国一网(OneWeb)星座的低轨宽带通信卫星,于北京时间2021年12月27日发射入轨。作为OneWeb第一代全球卫星互联网组网的组成部分,该卫星运行在近地轨道,旨在为全球提供高速宽带接入服务,尤其弥补偏远地区网络覆盖盲区,支撑天地一体化网络建设。目前OneWeb第一代星座已完成部署,基本具备全球服务能力,ONEWEB-0409也承担着全球卫星互联网通信组网的关键任务。

Basic Information
目录编号:
50488
目录名称:
ONEWEB-0409
国际标识:
2021-132V
轨道中心:
EARTH
卫星名称:
一网星座-0409星
卫星全名:
一网星座-0409星 (ONEWEB-0409 )
卫星状态:
在轨 (已飞行1720 天)
发射日期:
2021-12-27 UTC
国别 :
英国 (GB)
星等 :
--
This satellite is enrolled in the Space Conjunction Data Service (SCDS) and the current flight risk assessment level is: No High Risk
Orbit Information
数据来源 国际轨道数据 AOE轨道数据
星历时间 2026-09-12T02:34:38+0800
12小时前
查看轨道信息
2026-09-07T06:00:00+0800
5天前
查看轨道信息
半长轴 7595.831km 7595.806km
偏心率 0.0001672 0.0001401
轨道倾角 87.897° 87.897°
近地点辐角 109.627° 97.209°
升交点赤经 3.843° 4.807°
平近点角 250.504° 23.804°
近地点 1216.423km 1216.604km
远地点 1218.965km 1218.734km
周期 109.805分钟 109.805分钟
每日圈数 13.114141 13.114207
Detailed Information
平衡模式:
三轴稳定
覆盖范围:
全球
运营商:
一网卫星公司
运营商所在国:
英国
制造商(研发单位):
一网卫星公司
制造商所在国:
英国
使用方式:
暂无
Satellite Introduction
OneWeb卫星网络由648颗重约125公斤的微型卫星组成,运行在1200公里的轨道上。 每颗卫星都能够提供至少每秒8千兆位的吞吐量,以使用其高吞吐量的Ku频段有效载荷为家庭和移动平台提供互联网接入。该卫星仍在工作。
2D Orbit Map
3D Orbit Map
Orbit Altitude Analysis Chart
Orbit Inclination Analysis Chart
Orbit Comprehensive Analysis Chart
View Comprehensive Chart
Conjunction Data List
Event ID Objects TCA Miss Dist (km) Collision Risk Probability Collision Risk Index (CRI) Action
CDM_260913-132203-831405-048823
2026-09-13T
13:22:14+0000
2.440 km
极远距离
6.278718E-7 极低风险 0.31
Miss Distance Evolution Trend with All Objects
Collision Probability Evolution Trend with All Objects